| time (UTC) | temp C | wind direction | speed KPH | gust KPH | rain 1hr cm | rain 24hr cm | rain mn cm | humidity % | barometer mb |
| 20260904215759 | 26 | 148 | 0.0 | 0.0 | 0.00 | 0.00 | 0.00 | 36 | 1006.2 |
| 20260904214741 | 25 | 148 | 0.0 | 0.0 | 0.00 | 0.00 | 0.00 | 36 | 1006.2 |
| 20260904213756 | 26 | 142 | 0.0 | 0.0 | 0.00 | 0.00 | 0.00 | 36 | 1006.3 |
| 20260904212731 | 26 | 125 | 0.0 | 0.0 | 0.00 | 0.00 | 0.00 | 36 | 1006.4 |
| 20260904210600 | 26 | 260 | 0.0 | 0.0 | 0.00 | 0.00 | 0.00 | 35 | 1006.6 |
| 20260904204504 | 26 | 0 | 4.8 | 1.6 | 0.00 | 0.00 | 0.00 | 36 | 1006.9 |
| 20260904203507 | 26 | 0 | 1.6 | 16.1 | 0.00 | 0.00 | 0.00 | 36 | 1007.0 |
| 20260904202526 | 26 | 268 | 0.0 | 0.0 | 0.00 | 0.00 | 0.00 | 37 | 1007.0 |
| 20260904201457 | 25 | 0 | 1.6 | 0.0 | 0.00 | 0.00 | 0.00 | 40 | 1007.2 |
| 20260904195352 | 26 | 228 | 9.7 | 25.7 | 0.00 | 0.00 | 0.00 | 36 | 1007.5 |
| 20260904194340 | 26 | 192 | 9.7 | 25.7 | 0.00 | 0.00 | 0.00 | 36 | 1007.5 |
| 20260904193328 | 25 | 0 | 0.0 | 0.0 | 0.00 | 0.00 | 0.00 | 41 | 1007.6 |
| 20260904192343 | 24 | 234 | 6.4 | 16.1 | 0.00 | 0.00 | 0.00 | 41 | 1007.8 |
| 20260904190226 | 23 | 250 | 0.0 | 4.8 | 0.00 | 0.00 | 0.00 | 44 | 1007.9 |
| 20260904184100 | 23 | 0 | 4.8 | 16.1 | 0.00 | 0.00 | 0.00 | 45 | 1008.1 |
| 20260904183103 | 23 | 0 | 1.6 | 16.1 | 0.00 | 0.00 | 0.00 | 45 | 1008.2 |
| 20260904182104 | 23 | 261 | 1.6 | 16.1 | 0.00 | 0.00 | 0.00 | 47 | 1008.4 |
| 20260904181039 | 23 | 245 | 0.0 | 11.3 | 0.00 | 0.00 | 0.00 | 47 | 1008.5 |
| 20260904174920 | 22 | 251 | 0.0 | 16.1 | 0.00 | 0.00 | 0.00 | 48 | 1008.7 |
| 20260904173933 | 22 | 0 | 0.0 | 1.6 | 0.00 | 0.00 | 0.00 | 49 | 1008.7 |
| 20260904172907 | 22 | 0 | 6.4 | 20.9 | 0.00 | 0.00 | 0.00 | 49 | 1008.9 |
| 20260904171902 | 23 | 260 | 1.6 | 20.9 | 0.00 | 0.00 | 0.00 | 48 | 1008.8 |
| 20260904165743 | 22 | 246 | 0.0 | 6.4 | 0.00 | 0.00 | 0.00 | 48 | 1008.9 |
| 20260904164734 | 22 | 248 | 1.6 | 0.0 | 0.00 | 0.00 | 0.00 | 47 | 1009.0 |
| 20260904163758 | 22 | 259 | 6.4 | 17.7 | 0.00 | 0.00 | 0.00 | 48 | 1008.9 |
| 20260904162735 | 22 | 267 | 6.4 | 19.3 | 0.00 | 0.00 | 0.00 | 46 | 1008.8 |
| 20260904160625 | 22 | 204 | 1.6 | 17.7 | 0.00 | 0.00 | 0.00 | 48 | 1008.6 |
| 20260904155623 | 21 | 229 | 1.6 | 0.0 | 0.00 | 0.00 | 0.00 | 49 | 1008.6 |
| 20260904154640 | 21 | 271 | 0.0 | 0.0 | 0.00 | 0.00 | 0.00 | 48 | 1008.7 |
| 20260904153703 | 21 | 0 | 0.0 | 17.7 | 0.00 | 0.00 | 0.00 | 46 | 1008.7 |
| 20260904152650 | 21 | 0 | 0.0 | 0.0 | 0.00 | 0.00 | 0.00 | 48 | 1008.6 |
| 20260904145409 | 19 | 0 | 0.0 | 0.0 | 0.00 | 0.00 | 0.00 | 52 | 1008.5 |
| 20260904144405 | 18 | 0 | 0.0 | 0.0 | 0.00 | 0.00 | 0.00 | 56 | 1008.4 |
| 20260904143354 | 18 | 0 | 0.0 | 0.0 | 0.00 | 0.00 | 0.00 | 57 | 1008.4 |
| 20260904142416 | 17 | 0 | 0.0 | 0.0 | 0.00 | 0.00 | 0.00 | 59 | 1008.4 |
| 20260904141409 | 17 | 0 | 0.0 | 0.0 | 0.00 | 0.00 | 0.00 | 62 | 1008.5 |
| 20260904140410 | 16 | 0 | 0.0 | 0.0 | 0.00 | 0.00 | 0.00 | 63 | 1008.6 |
| 20260904135433 | 16 | 0 | 0.0 | 0.0 | 0.00 | 0.00 | 0.00 | 63 | 1008.4 |
| 20260904134431 | 15 | 0 | 0.0 | 0.0 | 0.00 | 0.00 | 0.00 | 66 | 1008.3 |
| 20260904133455 | 14 | 0 | 0.0 | 0.0 | 0.00 | 0.00 | 0.00 | 69 | 1008.1 |
| 20260904131319 | 14 | 0 | 0.0 | 0.0 | 0.00 | 0.00 | 0.00 | 70 | 1007.8 |
| 20260904130329 | 14 | 0 | 0.0 | 0.0 | 0.00 | 0.00 | 0.00 | 70 | 1007.7 |
| 20260904125349 | 14 | 0 | 0.0 | 0.0 | 0.00 | 0.00 | 0.00 | 70 | 1007.7 |
| 20260904124327 | 14 | 0 | 0.0 | 0.0 | 0.00 | 0.00 | 0.00 | 70 | 1007.5 |
| 20260904123336 | 14 | 0 | 0.0 | 0.0 | 0.00 | 0.00 | 0.00 | 71 | 1007.4 |
| 20260904122312 | 14 | 0 | 0.0 | 0.0 | 0.00 | 0.00 | 0.00 | 71 | 1007.4 |
| 20260904121247 | 13 | 0 | 0.0 | 0.0 | 0.00 | 0.00 | 0.00 | 71 | 1007.4 |
| 20260904120244 | 13 | 0 | 0.0 | 0.0 | 0.00 | 0.00 | 0.00 | 72 | 1007.2 |
| 20260904115230 | 13 | 0 | 0.0 | 0.0 | 0.00 | 0.00 | 0.00 | 71 | 1007.2 |
| 20260904114254 | 13 | 0 | 0.0 | 0.0 | 0.00 | 0.00 | 0.00 | 70 | 1007.3 |
| 20260904113259 | 13 | 0 | 0.0 | 0.0 | 0.00 | 0.00 | 0.00 | 71 | 1007.2 |
| 20260904112238 | 13 | 0 | 0.0 | 0.0 | 0.00 | 0.00 | 0.00 | 71 | 1007.1 |
| 20260904111246 | 13 | 0 | 0.0 | 0.0 | 0.00 | 0.00 | 0.00 | 71 | 1007.2 |
| 20260904110231 | 13 | 0 | 0.0 | 0.0 | 0.00 | 0.00 | 0.00 | 72 | 1007.1 |
| 20260904105231 | 13 | 0 | 0.0 | 0.0 | 0.00 | 0.00 | 0.00 | 72 | 1007.1 |
| 20260904104237 | 13 | 0 | 0.0 | 0.0 | 0.00 | 0.00 | 0.00 | 70 | 1007.1 |
| 20260904103249 | 13 | 0 | 0.0 | 0.0 | 0.00 | 0.00 | 0.00 | 71 | 1006.9 |
| 20260904102235 | 13 | 0 | 0.0 | 0.0 | 0.00 | 0.00 | 0.00 | 70 | 1006.8 |
| 20260904101228 | 14 | 0 | 0.0 | 0.0 | 0.00 | 0.00 | 0.00 | 69 | 1006.7 |
| 20260904100206 | 14 | 0 | 0.0 | 0.0 | 0.00 | 0.00 | 0.00 | 69 | 1006.7 |
| 20260904095151 | 14 | 0 | 0.0 | 0.0 | 0.00 | 0.00 | 0.00 | 68 | 1006.6 |
| 20260904094147 | 14 | 0 | 0.0 | 0.0 | 0.00 | 0.00 | 0.00 | 67 | 1006.4 |
| 20260904093147 | 14 | 0 | 6.4 | 0.0 | 0.00 | 0.00 | 0.00 | 67 | 1006.5 |
| 20260904091055 | 13 | 0 | 0.0 | 0.0 | 0.00 | 0.00 | 0.00 | 66 | 1006.7 |
| 20260904090044 | 14 | 0 | 0.0 | 0.0 | 0.00 | 0.00 | 0.00 | 66 | 1006.7 |
| 20260904085055 | 14 | 0 | 0.0 | 0.0 | 0.00 | 0.00 | 0.00 | 66 | 1006.7 |
| 20260904084039 | 14 | 0 | 0.0 | 0.0 | 0.00 | 0.00 | 0.00 | 65 | 1006.7 |
| 20260904083030 | 15 | 0 | 0.0 | 0.0 | 0.00 | 0.00 | 0.00 | 64 | 1006.7 |
| 20260904082037 | 15 | 0 | 0.0 | 0.0 | 0.00 | 0.00 | 0.00 | 63 | 1006.8 |
| 20260904081006 | 15 | 0 | 0.0 | 0.0 | 0.00 | 0.00 | 0.00 | 62 | 1006.9 |
| 20260904080025 | 15 | 0 | 0.0 | 0.0 | 0.00 | 0.00 | 0.00 | 62 | 1007.0 |
| 20260904074953 | 15 | 0 | 0.0 | 0.0 | 0.00 | 0.00 | 0.00 | 61 | 1007.1 |
| 20260904074011 | 15 | 0 | 1.6 | 12.9 | 0.00 | 0.00 | 0.00 | 60 | 1007.1 |
| 20260904073025 | 15 | 253 | 0.0 | 0.0 | 0.00 | 0.00 | 0.00 | 60 | 1007.2 |
| 20260904072035 | 15 | 253 | 0.0 | 0.0 | 0.00 | 0.00 | 0.00 | 60 | 1007.2 |
| 20260904071037 | 15 | 253 | 0.0 | 0.0 | 0.00 | 0.00 | 0.00 | 59 | 1007.2 |
| 20260904070050 | 15 | 253 | 0.0 | 0.0 | 0.00 | 0.00 | 0.00 | 58 | 1007.2 |
| 20260904065108 | 16 | 253 | 0.0 | 0.0 | 0.00 | 0.00 | 0.00 | 56 | 1007.2 |
| 20260904062951 | 16 | 253 | 0.0 | 0.0 | 0.00 | 0.00 | 0.00 | 52 | 1007.1 |
| 20260904061934 | 17 | 253 | 0.0 | 0.0 | 0.00 | 0.00 | 0.00 | 50 | 1007.0 |
| 20260904060902 | 17 | 253 | 0.0 | 0.0 | 0.00 | 0.00 | 0.00 | 49 | 1007.0 |
| 20260904055848 | 17 | 253 | 0.0 | 0.0 | 0.00 | 0.00 | 0.00 | 48 | 1006.8 |
| 20260904052527 | 17 | 253 | 0.0 | 0.0 | 0.00 | 0.00 | 0.00 | 49 | 1006.8 |
| 20260904050446 | 16 | 253 | 0.0 | 0.0 | 0.00 | 0.00 | 0.00 | 51 | 1006.8 |
| 20260904045427 | 16 | 253 | 0.0 | 0.0 | 0.00 | 0.00 | 0.00 | 52 | 1006.7 |
| 20260904044440 | 16 | 253 | 0.0 | 0.0 | 0.00 | 0.00 | 0.00 | 50 | 1006.7 |
| 20260904043500 | 16 | 226 | 0.0 | 0.0 | 0.00 | 0.00 | 0.00 | 50 | 1006.7 |
| 20260904041334 | 16 | 226 | 0.0 | 0.0 | 0.00 | 0.00 | 0.00 | 50 | 1006.8 |
| 20260904040327 | 17 | 226 | 0.0 | 0.0 | 0.00 | 0.00 | 0.00 | 48 | 1006.7 |
| 20260904035255 | 17 | 226 | 0.0 | 0.0 | 0.00 | 0.00 | 0.00 | 47 | 1006.7 |
| 20260904034237 | 17 | 226 | 0.0 | 0.0 | 0.00 | 0.00 | 0.00 | 48 | 1006.7 |
| 20260904032103 | 17 | 226 | 0.0 | 0.0 | 0.00 | 0.00 | 0.00 | 45 | 1006.6 |
| 20260904031112 | 18 | 226 | 0.0 | 0.0 | 0.00 | 0.00 | 0.00 | 44 | 1006.5 |
| 20260904030107 | 18 | 225 | 0.0 | 0.0 | 0.00 | 0.00 | 0.00 | 44 | 1006.4 |
| 20260904022812 | 20 | 225 | 0.0 | 0.0 | 0.00 | 0.00 | 0.00 | 38 | 1006.1 |
| 20260904021745 | 21 | 225 | 0.0 | 0.0 | 0.00 | 0.00 | 0.00 | 36 | 1006.0 |
| 20260904020722 | 21 | 225 | 0.0 | 0.0 | 0.00 | 0.00 | 0.00 | 35 | 1005.9 |
| 20260904015712 | 22 | 225 | 0.0 | 0.0 | 0.00 | 0.00 | 0.00 | 34 | 1005.9 |
| 20260904014715 | 23 | 225 | 0.0 | 0.0 | 0.00 | 0.00 | 0.00 | 32 | 1005.8 |
| 20260904013739 | 23 | 225 | 0.0 | 0.0 | 0.00 | 0.00 | 0.00 | 32 | 1005.8 |
| 20260904011536 | 24 | 224 | 0.0 | 0.0 | 0.00 | 0.00 | 0.00 | 30 | 1005.7 |
| 20260904010601 | 25 | 225 | 0.0 | 1.6 | 0.00 | 0.00 | 0.00 | 30 | 1005.6 |
| 20260904005542 | 26 | 221 | 0.0 | 6.4 | 0.00 | 0.00 | 0.00 | 28 | 1005.6 |
| 20260904004607 | 26 | 209 | 0.0 | 12.9 | 0.00 | 0.00 | 0.00 | 28 | 1005.6 |
| 20260904003618 | 26 | 261 | 0.0 | 19.3 | 0.00 | 0.00 | 0.00 | 28 | 1005.7 |
| 20260904002607 | 26 | 185 | 1.6 | 16.1 | 0.00 | 0.00 | 0.00 | 27 | 1005.7 |
| 20260904001558 | 26 | 221 | 0.0 | 11.3 | 0.00 | 0.00 | 0.00 | 27 | 1005.8 |
| 20260904000539 | 26 | 217 | 1.6 | 20.9 | 0.00 | 0.00 | 0.00 | 28 | 1005.9 |
| 20260903235558 | 26 | 248 | 0.0 | 20.9 | 0.00 | 0.00 | 0.00 | 28 | 1005.9 |
| 20260903234622 | 26 | 215 | 0.0 | 8.0 | 0.00 | 0.00 | 0.00 | 27 | 1006.0 |
| 20260903233636 | 26 | 238 | 0.0 | 0.0 | 0.00 | 0.00 | 0.00 | 27 | 1006.0 |
| 20260903232639 | 26 | 201 | 1.6 | 6.4 | 0.00 | 0.00 | 0.00 | 28 | 1006.2 |
| 20260903231634 | 25 | 190 | 6.4 | 17.7 | 0.00 | 0.00 | 0.00 | 29 | 1006.2 |
| 20260903230628 | 26 | 211 | 9.7 | 22.5 | 0.00 | 0.00 | 0.00 | 29 | 1006.3 |
| 20260903225652 | 26 | 205 | 4.8 | 16.1 | 0.00 | 0.00 | 0.00 | 28 | 1006.5 |
| 20260903224712 | 27 | 230 | 0.0 | 17.7 | 0.00 | 0.00 | 0.00 | 27 | 1006.5 |
| 20260903223728 | 27 | 207 | 6.4 | 22.5 | 0.00 | 0.00 | 0.00 | 28 | 1006.7 |
| 20260903222726 | 27 | 244 | 1.6 | 22.5 | 0.00 | 0.00 | 0.00 | 27 | 1006.8 |
| 20260903220610 | 26 | 247 | 0.0 | 4.8 | 0.00 | 0.00 | 0.00 | 30 | 1007.0 |